E1570 Weather Reports


time (UTC)temp
C
wind
direction
speed
KPH
gust
KPH
rain 1hr
cm
rain 24hr
cm
rain mn
cm
humidity
%
barometer
mb
20260502183050 11 195 9.7 17.7 0.00 0.00 0.00 43 1014.3
20260502181554 11 206 11.3 19.3 0.00 0.00 0.00 42 1014.5
20260502163101 12 179 4.8 16.1 0.00 0.00 0.00 40 1014.9
20260502161557 11 185 11.3 25.7 0.00 0.00 0.00 40 1015.2
20260502151556 11 87 4.8 17.7 0.00 0.00 0.00 44 1015.2
20260502150109 11 229 6.4 16.1 0.00 0.00 0.00 42 1015.4
20260502130107 7 148 1.6 4.8 0.00 0.00 0.00 69 1015.8
20260502123100 6 172 0.0 3.2 0.00 0.00 0.00 72 1015.7
20260502121558 6 0 0.0 3.2 0.00 0.00 0.00 74 1015.9
20260502114558 5 0 0.0 0.0 0.00 0.00 0.00 80 1015.7
20260502113056 5 0 0.0 0.0 0.00 0.00 0.00 83 1015.7
20260502111555 5 0 0.0 0.0 0.00 0.00 0.00 82 1015.6
20260502110053 5 0 0.0 0.0 0.00 0.00 0.00 82 1015.6
20260502104551 5 0 0.0 0.0 0.00 0.00 0.00 81 1015.4
20260502103054 5 0 0.0 1.6 0.00 0.00 0.00 80 1015.4
20260502101553 5 175 0.0 1.6 0.00 0.00 0.00 78 1015.6
20260502080106 8 152 3.2 8.0 0.00 0.00 0.00 63 1015.3
20260502070052 8 149 0.0 4.8 0.00 0.00 0.00 58 1015.1
20260502064559 8 128 1.6 11.3 0.00 0.00 0.00 58 1015.0
20260502063112 9 201 4.8 9.7 0.00 0.00 0.00 57 1015.3
20260502061552 9 170 0.0 4.8 0.00 0.00 0.00 57 1015.6
20260502060058 9 229 1.6 9.7 0.00 0.00 0.00 56 1015.6
20260502054552 9 224 6.4 12.9 0.00 0.00 0.00 59 1015.4
20260502053059 10 181 4.8 11.3 0.00 0.00 0.00 65 1015.3
20260502051551 10 210 3.2 12.9 0.00 0.00 0.00 64 1015.3
20260502050054 10 227 9.7 19.3 0.00 0.00 0.00 66 1015.3
20260502044552 10 189 8.0 16.1 0.00 0.00 0.00 67 1015.4
20260502043055 10 146 6.4 12.9 0.00 0.00 0.00 66 1015.3
20260502041556 10 102 1.6 8.0 0.00 0.00 0.00 66 1015.2
20260502040101 10 115 0.0 9.7 0.00 0.00 0.00 65 1015.2
20260502034556 11 82 3.2 8.0 0.00 0.00 0.00 64 1015.3
20260502033053 11 193 1.6 8.0 0.00 0.00 0.00 64 1015.4
20260502031555 11 103 3.2 9.7 0.00 0.00 0.00 62 1015.4
20260502030052 11 181 3.2 11.3 0.00 0.00 0.00 61 1015.5
20260502024603 11 212 6.4 16.1 0.00 0.00 0.00 61 1015.3
20260502023107 11 241 6.4 17.7 0.00 0.00 0.00 61 1015.0
20260502021556 11 179 8.0 16.1 0.00 0.00 0.00 62 1014.7
20260502020058 12 197 6.4 22.5 0.00 0.00 0.00 61 1014.4
20260502014557 12 115 4.8 14.5 0.00 0.00 0.00 62 1013.9
20260502013055 12 199 4.8 24.1 0.00 0.00 0.00 63 1013.7
20260502011558 12 170 3.2 12.9 0.00 0.00 0.00 64 1013.6
20260502010054 12 226 4.8 17.7 0.00 0.00 0.00 63 1013.4
20260502004552 13 207 1.6 11.3 0.00 0.00 0.00 63 1012.9
20260502003056 13 156 4.8 14.5 0.00 0.00 0.00 60 1012.8
20260502001555 13 285 3.2 12.9 0.00 0.00 0.00 59 1012.2
20260502000100 14 238 6.4 22.5 0.00 0.00 0.00 56 1011.7
20260501234559 15 191 16.1 27.4 0.00 0.00 0.00 53 1011.2
20260501233054 16 231 12.9 25.7 0.00 0.00 0.00 47 1010.9
20260501231616 18 154 6.4 12.9 0.00 0.00 0.00 35 1010.3
20260501230059 19 134 6.4 11.3 0.00 0.00 0.00 32 1010.2
20260501224602 19 104 6.4 16.1 0.00 0.00 0.00 32 1010.2
20260501223053 20 185 3.2 27.4 0.00 0.00 0.00 30 1010.0
20260501221606 20 168 8.0 22.5 0.00 0.00 0.00 28 1009.9
20260501220058 20 66 4.8 38.6 0.00 0.00 0.00 29 1010.0
20260501214553 20 31 6.4 25.7 0.00 0.00 0.00 29 1010.0
20260501213055 20 165 4.8 25.7 0.00 0.00 0.00 29 1010.1
20260501211608 21 227 9.7 22.5 0.00 0.00 0.00 26 1010.0
20260501210054 21 109 4.8 24.1 0.00 0.00 0.00 26 1010.0
20260501204552 21 139 6.4 20.9 0.00 0.00 0.00 25 1009.9
20260501203056 21 172 6.4 19.3 0.00 0.00 0.00 24 1009.8
20260501201602 21 239 4.8 24.1 0.00 0.00 0.00 25 1009.7
20260501200055 21 216 6.4 17.7 0.00 0.00 0.00 22 1009.8
20260501194609 21 171 3.2 30.6 0.00 0.00 0.00 22 1009.9
20260501193054 21 137 6.4 24.1 0.00 0.00 0.00 23 1009.8
20260501191555 21 75 3.2 20.9 0.00 0.00 0.00 24 1010.1
20260501190055 21 11 14.5 27.4 0.00 0.00 0.00 24 1010.0
20260501184553 20 271 6.4 14.5 0.00 0.00 0.00 33 1010.4